TimeEDT,TemperatureF,Dew PointF,Humidity,Sea Level PressureIn,VisibilityMPH,Wind Direction,Wind SpeedMPH,Gust SpeedMPH,PrecipitationIn,Events,Conditions,WindDirDegrees,DateUTC
12:15 AM,66.4,65.8,98,30.24,10.0,Calm,Calm,-,N/A,,Unknown,0,2013-06-24 04:15:00
12:35 AM,66.4,65.7,98,30.23,10.0,Calm,Calm,-,N/A,,Unknown,0,2013-06-24 04:35:00
12:55 AM,66.2,65.8,99,30.24,7.0,Calm,Calm,-,N/A,,Unknown,0,2013-06-24 04:55:00
1:15 AM,66.2,66.0,99,30.24,7.0,Calm,Calm,-,N/A,,Unknown,0,2013-06-24 05:15:00
1:35 AM,66.4,66.2,99,30.23,5.0,Calm,Calm,-,0.01,Rain,Light Rain,0,2013-06-24 05:35:00
1:55 AM,66.7,66.4,99,30.22,7.0,Calm,Calm,-,0.01,Rain,Light Rain,0,2013-06-24 05:55:00
2:15 AM,66.4,66.2,99,30.23,7.0,Calm,Calm,-,N/A,,Unknown,0,2013-06-24 06:15:00
2:35 AM,66.4,66.2,99,30.22,5.0,Calm,Calm,-,N/A,,Mist,0,2013-06-24 06:35:00
2:55 AM,66.4,66.2,99,30.22,5.0,Calm,Calm,-,0.01,,Mist,0,2013-06-24 06:55:00
3:15 AM,66.6,66.2,99,30.22,7.0,Calm,Calm,-,N/A,,Unknown,0,2013-06-24 07:15:00
3:35 AM,66.6,66.2,99,30.22,10.0,NE,3.5,-,N/A,,Unknown,40,2013-06-24 07:35:00
3:55 AM,66.6,66.2,99,30.21,7.0,Calm,Calm,-,N/A,,Unknown,0,2013-06-24 07:55:00
4:15 AM,66.6,66.2,99,30.22,7.0,Calm,Calm,-,N/A,,Unknown,0,2013-06-24 08:15:00
4:35 AM,66.4,66.2,99,30.22,7.0,Calm,Calm,-,N/A,,Unknown,0,2013-06-24 08:35:00
4:55 AM,66.2,66.2,100,30.22,4.0,Calm,Calm,-,N/A,,Mist,0,2013-06-24 08:55:00
5:15 AM,66.2,66.2,100,30.23,4.0,Calm,Calm,-,N/A,,Mist,0,2013-06-24 09:15:00
5:35 AM,66.2,66.2,100,30.23,4.0,Calm,Calm,-,N/A,,Mist,0,2013-06-24 09:35:00
5:55 AM,66.2,65.8,99,30.23,7.0,Calm,Calm,-,N/A,,Unknown,0,2013-06-24 09:55:00
6:15 AM,65.3,65.1,99,30.23,5.0,Calm,Calm,-,N/A,,Mist,0,2013-06-24 10:15:00
6:35 AM,65.3,65.3,100,30.23,4.0,Calm,Calm,-,N/A,,Mist,0,2013-06-24 10:35:00
6:55 AM,65.3,65.1,99,30.25,7.0,Calm,Calm,-,N/A,,Unknown,0,2013-06-24 10:55:00
7:15 AM,65.7,65.3,99,30.25,5.0,Calm,Calm,-,N/A,,Mist,0,2013-06-24 11:15:00
7:35 AM,66.4,65.7,98,30.25,7.0,Calm,Calm,-,N/A,,Unknown,0,2013-06-24 11:35:00
7:55 AM,66.6,65.8,98,30.26,7.0,Calm,Calm,-,N/A,,Unknown,0,2013-06-24 11:55:00
8:15 AM,67.3,65.8,95,30.26,10.0,Calm,Calm,-,N/A,,Unknown,0,2013-06-24 12:15:00
8:35 AM,68.5,66.0,92,30.26,10.0,Calm,Calm,-,N/A,,Unknown,0,2013-06-24 12:35:00
8:55 AM,69.8,66.9,91,30.27,10.0,Calm,Calm,-,N/A,,Unknown,0,2013-06-24 12:55:00
9:15 AM,70.3,67.1,89,30.27,10.0,Calm,Calm,-,N/A,,Unknown,0,2013-06-24 13:15:00
9:35 AM,71.1,67.5,88,30.27,10.0,Calm,Calm,-,N/A,,Unknown,0,2013-06-24 13:35:00
9:55 AM,72.9,68.7,87,30.28,10.0,Calm,Calm,-,N/A,,Unknown,0,2013-06-24 13:55:00
10:15 AM,74.8,68.7,81,30.27,10.0,SW,3.5,-,N/A,,Unknown,220,2013-06-24 14:15:00
10:35 AM,75.4,69.1,81,30.28,10.0,SSW,3.5,-,N/A,,Unknown,210,2013-06-24 14:35:00
10:55 AM,76.8,67.5,73,30.27,10.0,SW,4.6,-,N/A,,Unknown,230,2013-06-24 14:55:00
11:15 AM,77.9,67.5,70,30.27,10.0,WSW,4.6,-,N/A,,Unknown,240,2013-06-24 15:15:00
11:35 AM,78.3,67.6,70,30.27,10.0,WSW,4.6,-,N/A,,Unknown,240,2013-06-24 15:35:00
11:55 AM,79.5,67.1,66,30.27,10.0,SW,6.9,-,N/A,,Unknown,230,2013-06-24 15:55:00
12:15 PM,78.3,66.0,66,30.26,10.0,West,4.6,-,N/A,,Unknown,260,2013-06-24 16:15:00
12:35 PM,80.8,68.9,67,30.25,10.0,SSW,4.6,-,N/A,,Unknown,210,2013-06-24 16:35:00
12:55 PM,80.8,67.5,64,30.25,-9999.0,SSW,6.9,-,N/A,,Unknown,210,2013-06-24 16:55:00
1:15 PM,81.3,66.2,60,30.24,-9999.0,WSW,8.1,-,N/A,,Unknown,250,2013-06-24 17:15:00
1:35 PM,81.7,66.7,60,30.23,10.0,WSW,4.6,-,N/A,,Clear,240,2013-06-24 17:35:00
1:55 PM,82.6,67.8,61,30.22,10.0,West,8.1,-,N/A,,Clear,260,2013-06-24 17:55:00
2:15 PM,83.1,67.1,58,30.20,10.0,West,10.4,-,N/A,,Clear,270,2013-06-24 18:15:00
2:35 PM,83.5,66.0,55,30.19,10.0,WNW,5.8,-,N/A,,Clear,290,2013-06-24 18:35:00
2:55 PM,84.2,66.4,55,30.19,10.0,West,9.2,-,N/A,,Clear,270,2013-06-24 18:55:00
3:15 PM,83.8,66.0,55,30.18,10.0,WSW,6.9,-,N/A,,Clear,240,2013-06-24 19:15:00
3:35 PM,85.1,67.5,55,30.18,10.0,SW,5.8,-,N/A,,Clear,230,2013-06-24 19:35:00
3:55 PM,84.7,67.1,55,30.18,10.0,WSW,4.6,-,N/A,,Clear,250,2013-06-24 19:55:00
4:15 PM,84.6,66.6,55,30.17,10.0,SSW,4.6,-,N/A,,Clear,210,2013-06-24 20:15:00
4:35 PM,85.1,65.8,52,30.17,10.0,Calm,Calm,-,N/A,,Clear,0,2013-06-24 20:35:00
4:55 PM,85.3,66.4,53,30.16,10.0,WSW,8.1,-,N/A,,Scattered Clouds,250,2013-06-24 20:55:00
5:15 PM,82.4,67.3,60,30.16,10.0,WSW,5.8,-,N/A,,Mostly Cloudy,240,2013-06-24 21:15:00
5:35 PM,83.5,66.4,56,30.16,10.0,WSW,8.1,-,N/A,,Scattered Clouds,250,2013-06-24 21:35:00
5:55 PM,84.0,67.3,57,30.16,10.0,WSW,8.1,-,N/A,,Scattered Clouds,250,2013-06-24 21:55:00
6:15 PM,83.1,67.3,59,30.15,10.0,WSW,8.1,-,N/A,,Clear,250,2013-06-24 22:15:00
6:35 PM,82.8,68.5,62,30.15,10.0,WSW,8.1,-,N/A,,Clear,240,2013-06-24 22:35:00
6:55 PM,81.5,68.5,65,30.15,10.0,WSW,9.2,-,N/A,,Scattered Clouds,240,2013-06-24 22:55:00
7:15 PM,80.1,66.7,64,30.16,10.0,SW,8.1,-,N/A,,Scattered Clouds,230,2013-06-24 23:15:00
7:35 PM,79.0,65.1,62,30.17,10.0,West,3.5,-,N/A,,Clear,260,2013-06-24 23:35:00
7:55 PM,77.7,66.2,68,30.17,10.0,Calm,Calm,-,N/A,,Clear,0,2013-06-24 23:55:00
8:15 PM,75.6,66.6,74,30.17,10.0,Calm,Calm,-,N/A,,Clear,0,2013-06-25 00:15:00
8:35 PM,73.2,68.4,85,30.18,10.0,Calm,Calm,-,N/A,,Clear,0,2013-06-25 00:35:00
8:55 PM,72.5,66.2,81,30.18,10.0,NNW,3.5,-,N/A,,Clear,330,2013-06-25 00:55:00
9:15 PM,70.9,66.4,86,30.19,10.0,Calm,Calm,-,N/A,,Scattered Clouds,0,2013-06-25 01:15:00
9:35 PM,69.4,66.7,91,30.18,10.0,Calm,Calm,-,N/A,,Scattered Clouds,0,2013-06-25 01:35:00
9:55 PM,69.8,65.8,87,30.18,10.0,Calm,Calm,-,N/A,,Mostly Cloudy,0,2013-06-25 01:55:00
10:15 PM,69.4,65.8,88,30.19,10.0,Calm,Calm,-,N/A,,Overcast,0,2013-06-25 02:15:00
10:35 PM,68.9,65.8,90,30.19,10.0,Calm,Calm,-,N/A,,Overcast,0,2013-06-25 02:35:00
10:55 PM,68.0,65.7,92,30.20,10.0,Calm,Calm,-,N/A,,Overcast,0,2013-06-25 02:55:00
11:15 PM,68.4,65.7,91,30.21,10.0,Calm,Calm,-,N/A,,Overcast,0,2013-06-25 03:15:00
11:35 PM,68.2,66.0,93,30.22,10.0,Calm,Calm,-,N/A,,Overcast,0,2013-06-25 03:35:00
11:55 PM,68.2,66.6,95,30.22,10.0,Calm,Calm,-,N/A,Rain,Light Rain,0,2013-06-25 03:55:00